[[{"header":{"parameterUnit":"m.s-1","parameterCategory":1,"la1":30.2991,"la2":30.254,"lo1":-89.0895,"lo2":-89.0444,"dy":0.0017,"dx":0.0017,"nx":28,"ny":28,"refTime":"2023-09-21T21:00:00:Z","depth":0,"parameterNumber":2,"parameterNumberName":"U-component_of_WINDS"},"data":[0,0,0,0,0,0,0,0,0,0,0,0,0,0,0,0,0,0,0,0,0,0,0,0,0,0,0,0,0,0,0,0,0,0,0,0,0,0,0,0,0,0,0,0,0,0,0,0,0,0,0,0,0,0,0,0,0,0,-2.7326,-2.7325,0,-2.7234,-2.7232,-2.7231,-2.714,-2.7138,-2.7137,-2.7136,-2.7035,-2.7034,-2.7032,0,0,0,0,0,0,0,0,0,0,0,0,0,-2.742,-2.7419,-2.7326,-2.7325,-2.7324,-2.7234,-2.7232,-2.7231,-2.714,-2.7138,-2.7137,-2.7136,-2.7036,-2.7034,-2.7032,0,0,0,0,0,0,0,0,0,0,0,0,0,-2.7358,-2.7418,-2.7326,-2.7268,-2.7261,-2.7234,-2.7232,-2.7231,-2.714,-2.7138,-2.7137,-2.7135,-2.7036,-2.7034,-2.7032,-2.7053,0,0,-2.7024,-2.7023,0,0,0,0,0,0,0,0,-2.7362,-2.7355,-2.7277,-2.7272,-2.7265,-2.7196,-2.7228,-2.7171,-2.7141,-2.7186,-2.7136,-2.7134,-2.709,-2.7083,-2.7069,-2.7048,-2.7044,-2.7024,-2.7023,-2.7022,-2.7021,0,0,0,0,0,0,0,-2.7366,-2.7359,-2.7289,-2.7276,-2.7269,-2.7245,-2.7234,-2.7217,-2.7149,-2.7182,-2.7175,-2.7166,-2.7086,-2.7072,-2.7066,-2.7042,-2.7024,-2.7022,-2.7021,-2.702,-2.7036,-2.7037,0,0,0,0,0,0,-2.738,-2.7363,-2.7292,-2.7286,-2.731,-2.7244,-2.7232,-2.722,-2.7149,-2.7136,-2.7167,-2.7162,-2.7077,-2.7069,-2.7062,-2.7083,-2.7022,-2.702,-2.7018,-2.7034,-2.7036,-2.7038,0,0,0,0,0,0,-2.7383,-2.7375,-2.7296,-2.7323,-2.7311,-2.7245,-2.7232,-2.7219,-2.7205,-2.7138,-2.7125,-2.7166,-2.7075,-2.7066,-2.7057,-2.7078,-2.7018,-2.7016,-2.7032,-2.7034,-2.7037,-2.7125,0,0,0,0,0,0,-2.7386,-2.7376,-2.7384,-2.7324,-2.731,-2.7293,-2.7233,-2.7219,-2.7202,-2.7194,-2.7133,-2.7121,-2.7073,-2.7061,-2.7054,-2.7074,-2.7014,-2.7029,-2.7033,-2.7036,-2.712,-2.713,-2.7139,0,0,0,0,0,-2.7389,-2.7411,-2.7385,-2.7377,-2.7319,-2.7295,-2.7286,-2.7232,-2.7204,-2.7211,-2.7169,-2.7123,-2.7078,-2.7061,-2.7053,-2.7072,-2.7028,-2.7032,-2.7036,-2.7115,-2.7128,-2.7139,0,0,0,0,0,0,-2.7473,-2.7402,-2.7372,-2.7375,-2.7342,-2.7279,-2.7286,-2.7248,-2.722,-2.7213,-2.7146,-2.7133,-2.7132,-2.7101,-2.7083,-2.709,-2.7046,-2.7049,-2.711,-2.7121,-2.7131,-2.7138,-2.7012,0,0,0,0,0,-2.7492,-2.748,-2.7418,-2.7426,-2.7412,-2.7353,-2.734,-2.7302,-2.7263,-2.7248,-2.7205,-2.7168,-2.7146,-2.7132,-2.7107,-2.7116,-2.7101,-2.7125,-2.7135,-2.7144,-2.7146,-2.7149,-2.716,-2.7052,-2.7052,-2.7051,0,0,-2.753,-2.749,-2.7486,-2.7442,-2.7412,-2.74,-2.7341,-2.733,-2.732,-2.7245,-2.7235,-2.7203,-2.7157,-2.7158,-2.7156,-2.7132,-2.7173,-2.7149,-2.7156,-2.7154,-2.7155,-2.7165,-2.7174,-2.7054,-2.7054,-2.7053,0,0,-2.7594,-2.7563,-2.7567,-2.7539,-2.7495,-2.7456,-2.7458,-2.7402,-2.7378,-2.7367,-2.7312,-2.7299,-2.7262,-2.7232,-2.7212,-2.727,-2.7227,-2.7264,-2.7314,-2.7318,-2.7327,-2.7334,-2.7354,-2.7362,-2.7267,-2.7267,-2.7267,0,-2.7647,-2.7628,-2.7574,-2.7567,-2.755,-2.7486,-2.7489,-2.7464,-2.7414,-2.7403,-2.7378,-2.7332,-2.7296,-2.729,-2.7304,-2.7291,-2.7289,-2.7269,-2.733,-2.7337,-2.7343,-2.7361,-2.7369,-2.7272,-2.7271,-2.7271,-2.727,0,-2.7695,-2.7683,-2.7691,-2.7648,-2.7631,-2.763,-2.7575,-2.7565,-2.7529,-2.7493,-2.7483,-2.744,-2.7407,-2.7402,-2.7366,-2.7391,-2.7378,-2.7343,-2.7298,-2.7359,-2.7375,-2.7382,-2.7278,-2.7277,-2.7275,-2.7274,0,0,-2.7805,-2.7734,-2.7738,-2.7718,-2.7667,-2.7656,-2.7653,-2.7623,-2.7615,-2.7584,-2.7578,-2.7551,-2.7519,-2.7497,-2.7457,-2.7461,-2.751,-2.7425,-2.7423,-2.7442,-2.7535,-2.7562,-2.7571,-2.7483,-2.7484,-2.7485,-2.7539,0,-2.7859,-2.785,-2.7803,-2.7807,-2.7795,-2.7736,-2.7733,-2.7701,-2.7668,-2.7653,-2.7615,-2.7597,-2.7556,-2.7543,-2.7544,-2.7504,-2.7528,-2.7499,-2.7476,-2.7476,-2.7488,-2.7579,-2.7606,-2.7659,-2.7545,-2.7546,-2.7547,0,-2.792,-2.7896,-2.79,-2.7851,-2.7844,-2.7843,-2.7812,-2.7799,-2.7762,-2.7738,-2.7716,-2.7673,-2.7665,-2.7625,-2.7614,-2.7596,-2.7584,-2.7563,-2.7564,-2.7558,-2.7514,-2.7575,-2.7675,-2.7683,-2.7557,-2.7556,-2.7555,0,-2.8,-2.7968,-2.7966,-2.7951,-2.7895,-2.7895,-2.7871,-2.7833,-2.7819,-2.7792,-2.7782,-2.7755,-2.774,-2.7719,-2.767,-2.7645,-2.7665,-2.762,-2.7643,-2.7645,-2.7648,-2.7648,-2.7746,-2.7643,-2.7643,-2.7642,-2.7642,0,-2.8064,-2.8069,-2.8002,-2.8001,-2.8005,-2.7951,-2.7956,-2.7926,-2.7893,-2.7885,-2.7832,-2.7826,-2.7762,-2.7748,-2.7709,-2.7706,-2.77,-2.7679,-2.7669,-2.7683,-2.7686,-2.7673,-2.7667,-2.7645,-2.7644,-2.7644,-2.7643,0,-2.8152,-2.8108,-2.8102,-2.8051,-2.8038,-2.8043,-2.7998,-2.7995,-2.7961,-2.7951,-2.7946,-2.7891,-2.7873,-2.7823,-2.779,-2.7764,-2.7771,-2.7752,-2.7784,-2.7778,-2.7804,-2.7802,-2.7896,-2.7906,-2.7798,-2.7799,-2.78,0,-2.8195,-2.8198,-2.8148,-2.814,-2.8119,-2.8107,-2.8093,-2.8041,-2.8029,-2.7989,-2.7991,-2.7969,-2.7948,-2.7921,-2.7877,-2.7853,-2.7832,-2.7867,-2.7827,-2.7843,-2.7832,-2.7832,-2.7832,-2.7875,-2.7876,-2.7877,-2.7878,0,-2.8277,-2.8256,-2.8239,-2.8216,-2.8202,-2.818,-2.8155,-2.8152,-2.8093,-2.8083,-2.8064,-2.8049,-2.8018,-2.7996,-2.7966,-2.794,-2.7899,-2.7892,-2.7896,-2.791,-2.7928,-2.7919,-2.7807,-2.7889,-2.7888,-2.7887,-2.7887,-2.7886,-2.8343,-2.8343,-2.8309,-2.8293,-2.827,-2.8249,-2.8244,-2.8211,-2.8195,-2.8167,-2.8138,-2.8123,-2.8088,-2.8044,-2.8021,-2.8009,-2.7987,-2.7993,-2.7994,-2.7996,-2.8003,-2.7933,-2.8003,-2.8002,-2.8002,-2.8002,-2.8001,0,-2.8421,-2.8397,-2.8383,-2.8352,-2.834,-2.8307,-2.8279,-2.827,-2.8258,-2.823,-2.8212,-2.8192,-2.8172,-2.813,-2.8105,-2.8104,-2.8085,-2.8099,-2.8098,-2.8093,-2.8023,-2.8022,-2.8115,-2.8115,-2.8115,-2.8115,-2.8115,-2.8115,-2.846,-2.846,-2.8435,-2.8423,-2.8398,-2.8385,-2.8372,-2.8353,-2.8331,-2.8311,-2.8296,-2.8269,-2.8235,-2.8209,-2.8189,-2.8177,-2.817,-2.8191,-2.8173,-2.8108,-2.8097,-2.8087,-2.8085,-2.819,-2.819,-2.8242,-2.8243,-2.8243]},{"header":{"parameterUnit":"m.s-1","parameterCategory":1,"la1":30.2991,"la2":30.254,"lo1":-89.0895,"lo2":-89.0444,"dy":0.0017,"dx":0.0017,"nx":28,"ny":28,"refTime":"2023-09-21T21:00:00:Z","depth":0,"parameterNumber":3,"parameterNumberName":"V-component_of_WINDS"},"data":[0,0,0,0,0,0,0,0,0,0,0,0,0,0,0,0,0,0,0,0,0,0,0,0,0,0,0,0,0,0,0,0,0,0,0,0,0,0,0,0,0,0,0,0,0,0,0,0,0,0,0,0,0,0,0,0,0,0,0.6337,0.6335,0,0.6198,0.6196,0.6194,0.6167,0.6168,0.617,0.6171,0.6025,0.602,0.6016,0,0,0,0,0,0,0,0,0,0,0,0,0,0.6578,0.6574,0.6337,0.6335,0.6333,0.6198,0.6196,0.6194,0.6167,0.6168,0.617,0.6171,0.6027,0.6021,0.6015,0,0,0,0,0,0,0,0,0,0,0,0,0,0.646,0.6572,0.6337,0.6304,0.6299,0.6198,0.6196,0.6193,0.6167,0.6169,0.617,0.6172,0.6029,0.6022,0.6014,0.5936,0,0,0.5992,0.5989,0,0,0,0,0,0,0,0,0.6466,0.6451,0.631,0.6306,0.6301,0.6202,0.6228,0.6107,0.6166,0.6217,0.6171,0.6173,0.6082,0.6071,0.6041,0.5929,0.5923,0.5991,0.5987,0.5984,0.5982,0,0,0,0,0,0,0,0.6475,0.6457,0.6282,0.6308,0.6302,0.6295,0.628,0.6205,0.6142,0.6213,0.621,0.6195,0.608,0.6048,0.6037,0.5921,0.5991,0.5985,0.598,0.5978,0.574,0.5738,0,0,0,0,0,0,0.6489,0.6464,0.6286,0.6277,0.6389,0.629,0.6273,0.6232,0.6143,0.6131,0.6193,0.6194,0.606,0.6046,0.6032,0.5936,0.5984,0.5977,0.5973,0.5742,0.574,0.5738,0,0,0,0,0,0,0.6494,0.6473,0.6292,0.637,0.6346,0.6284,0.6238,0.6228,0.6196,0.6128,0.6117,0.6172,0.6061,0.6042,0.5961,0.593,0.5974,0.5967,0.5744,0.5741,0.5739,0.5741,0,0,0,0,0,0,0.6501,0.6475,0.6445,0.6369,0.6342,0.6223,0.6236,0.6224,0.6184,0.6183,0.6105,0.6094,0.606,0.5972,0.5953,0.5921,0.5961,0.5747,0.5743,0.574,0.5744,0.5739,0.5735,0,0,0,0,0,0.651,0.645,0.6443,0.6422,0.6303,0.6221,0.6205,0.6169,0.6181,0.615,0.6107,0.6096,0.5937,0.5964,0.5943,0.5907,0.5748,0.5744,0.574,0.5746,0.574,0.5735,0,0,0,0,0,0,0.6521,0.6439,0.6431,0.6345,0.6291,0.6217,0.6176,0.6163,0.6103,0.6105,0.6062,0.6044,0.5966,0.5928,0.596,0.5828,0.5843,0.5835,0.5855,0.5849,0.5845,0.5855,0.5955,0,0,0,0,0,0.6515,0.6456,0.6387,0.6317,0.6291,0.6238,0.6201,0.6178,0.6119,0.6096,0.6046,0.5989,0.5927,0.5886,0.5824,0.5739,0.5722,0.5705,0.57,0.5697,0.569,0.5644,0.5635,0.5724,0.5724,0.5724,0,0,0.6498,0.6446,0.6411,0.6318,0.6273,0.6213,0.6219,0.6154,0.6109,0.6085,0.6006,0.5968,0.5902,0.5819,0.5779,0.5785,0.5662,0.5692,0.5689,0.5684,0.5639,0.563,0.5623,0.5721,0.5721,0.5722,0,0,0.6438,0.6393,0.6331,0.6286,0.6219,0.6185,0.6171,0.6099,0.6074,0.5994,0.5975,0.5921,0.5814,0.5768,0.573,0.5657,0.5645,0.5638,0.5614,0.557,0.5563,0.5557,0.5532,0.5523,0.5631,0.5631,0.5631,0,0.6426,0.6335,0.63,0.6237,0.6197,0.6176,0.6113,0.6071,0.5987,0.596,0.5968,0.5835,0.5788,0.5695,0.5677,0.5647,0.563,0.5646,0.5567,0.5561,0.5554,0.5529,0.552,0.5631,0.5631,0.5631,0.5631,0,0.6324,0.6262,0.622,0.6141,0.6097,0.6034,0.599,0.5949,0.5931,0.5897,0.5817,0.5761,0.5689,0.5665,0.5646,0.557,0.5576,0.5576,0.559,0.5546,0.5522,0.5512,0.563,0.563,0.5631,0.5631,0,0,0.6265,0.617,0.6155,0.612,0.6046,0.5996,0.5934,0.5865,0.5831,0.5774,0.5721,0.5633,0.5634,0.5591,0.5567,0.5529,0.5476,0.5534,0.5532,0.5525,0.539,0.539,0.5379,0.5468,0.5466,0.5465,0.5396,0,0.6196,0.6084,0.6052,0.5957,0.59,0.588,0.5826,0.5775,0.5742,0.5688,0.5652,0.559,0.5596,0.557,0.5531,0.549,0.5448,0.5495,0.5418,0.5416,0.5435,0.5367,0.5365,0.5303,0.5386,0.5385,0.5383,0,0.61,0.6044,0.5944,0.5879,0.5854,0.5806,0.5741,0.569,0.5633,0.5611,0.5566,0.5546,0.5481,0.5501,0.5411,0.5444,0.5411,0.5387,0.5383,0.5374,0.5396,0.5356,0.5282,0.5273,0.5368,0.5369,0.537,0,0.6067,0.5966,0.5894,0.5865,0.5787,0.5754,0.572,0.5665,0.5626,0.557,0.5544,0.5481,0.5446,0.5398,0.5362,0.5379,0.5276,0.5292,0.5256,0.5257,0.5234,0.5236,0.5154,0.5214,0.5214,0.5214,0.5214,0,0.5993,0.5933,0.5879,0.5834,0.5767,0.5732,0.5666,0.5631,0.5582,0.5531,0.551,0.5463,0.5419,0.5365,0.5337,0.5268,0.5252,0.5234,0.5227,0.5235,0.5237,0.5212,0.5215,0.5212,0.5212,0.5213,0.5213,0,0.5944,0.5906,0.5826,0.5761,0.5743,0.5696,0.564,0.5597,0.5565,0.55,0.5483,0.5432,0.5369,0.5329,0.5248,0.5229,0.5153,0.5148,0.5173,0.517,0.5137,0.5141,0.5035,0.502,0.5091,0.509,0.5089,0,0.59,0.5853,0.5784,0.5749,0.5715,0.5658,0.562,0.5584,0.5544,0.5477,0.5442,0.5378,0.5324,0.5225,0.518,0.5119,0.5112,0.5079,0.5102,0.5113,0.5112,0.5115,0.5111,0.5075,0.5075,0.5074,0.5074,0,0.5824,0.5808,0.5754,0.5693,0.5648,0.5598,0.5548,0.552,0.5476,0.5433,0.5369,0.5328,0.5247,0.5184,0.5119,0.5084,0.5072,0.5067,0.5056,0.5064,0.5081,0.5072,0.5163,0.5069,0.507,0.507,0.507,0.5071,0.5776,0.5735,0.568,0.5621,0.558,0.5535,0.5492,0.5455,0.5401,0.5333,0.5315,0.5248,0.5194,0.5107,0.5071,0.5019,0.5023,0.5007,0.5002,0.4999,0.4999,0.509,0.5007,0.5007,0.5007,0.5007,0.5007,0,0.57,0.5665,0.5611,0.5543,0.5496,0.5491,0.5436,0.5397,0.5339,0.529,0.5239,0.5167,0.5106,0.5059,0.4997,0.4964,0.4957,0.4949,0.4951,0.4944,0.4998,0.5014,0.4956,0.4956,0.4956,0.4956,0.4956,0.4956,0.5655,0.5586,0.5564,0.5475,0.5439,0.5375,0.5344,0.5303,0.5264,0.5184,0.5134,0.5104,0.5056,0.4992,0.4936,0.4924,0.4902,0.4896,0.4882,0.4934,0.4939,0.4945,0.496,0.4891,0.4891,0.4832,0.4832,0.4831]}]]